Regional Weather Roundup
Issued by NWS Albany, NY

Home | Current Version | Previous Version | Text Only | Print | Product List | Glossary On
Versions: 1 2 3 4 5 6 7 8 9 10 11 12 13 14 15 16 17 18 19 20 21 22 23 24 25 26 27 28 29 30 31 32 33 34 35 36 37 38 39 40 41 42 43 44 45 46 47 48 49 50
000
ASUS41 KALY 272010
RWRALY

NEW YORK STATE HOURLY WEATHER ROUNDUP
NATIONAL WEATHER SERVICE ALBANY NY
400 PM EDT THU APR 27 2017

NOTE: "FAIR" INDICATES FEW OR NO CLOUDS BELOW 12,000 FEET WITH NO
SIGNIFICANT WEATHER AND/OR NO OBSTRUCTIONS TO VISIBILITY.

NYZ032-033-038>043-046>054-057>066-NYZ062>081-082-084-272100-
EAST


CITY           SKY/WX    TMP DP  RH WIND       PRES   REMARKS
ALBANY         CLOUDY    72  56  57 S12       29.82F
GLENS FALLS    MOSUNNY   74  58  57 S9        29.80F
POUGHKEEPSIE   CLOUDY    68  58  70 VRB6      29.84F
NEWBURGH       CLOUDY    66  61  82 SE9       29.87F
MONTGOMERY     CLOUDY    70  60  70 S3        29.83F
WHITE PLAINS   CLOUDY    66  58  75 SE12      29.88F
ISLIP          CLOUDY    63  57  81 S9        29.90F
NEW YORK CITY  CLOUDY    69  57  65 S15       29.87F
CENTRAL PARK   MOSUNNY   67  58  72 VRB3      29.90F
$$

NYZ005>009-017-018-044>046-055-056-272100-
CENTRAL


CITY           SKY/WX    TMP DP  RH WIND       PRES   REMARKS
FULTON         MOSUNNY   82  60  47 SE9G18    29.64F
SYRACUSE       CLOUDY    80  58  46 SE15      29.65F
ROME           SUNNY     78  60  53 SE15      29.71F
ELMIRA         CLOUDY    78  57  48 SE12G22   29.69F
BINGHAMTON     CLOUDY    74  56  53 S12G18    29.75F
MONTICELLO     CLOUDY    66  61  82 SE10      29.85F
$$

NYZ026>034-041>043-087-272100-
NORTH


CITY           SKY/WX    TMP DP  RH WIND       PRES   REMARKS
WATERTOWN      CLOUDY    85  57  38 S9        29.63F
FORT DRUM      NOT AVBL
OGDENSBURG     FAIR      86  59  39 NE9       29.65F
MASSENA        SUNNY     80  60  50 E13       29.70F
SARANAC LAKE   SUNNY     78  55  44 SW12      29.75F
PLATTSBURGH    SUNNY     75  56  51 SE17G24   29.76F
$$

NYZ001>004-010>016-019>021-085-272100-
WEST


CITY           SKY/WX    TMP DP  RH WIND       PRES   REMARKS
NIAGARA FALLS  CLOUDY    82  59  45 N10       29.55F
BUFFALO        PTSUNNY   83  54  36 S17       29.56F
DUNKIRK        MOSUNNY   76  59  55 N7        29.56F
JAMESTOWN      PTSUNNY   79  52  38 S14G22    29.62F
WELLSVILLE     MOSUNNY   74  57  55 SE12      29.70F
ROCHESTER      PTSUNNY   85  59  41 S14       29.58F
PENN YAN       CLOUDY    78  59  51 SE14      29.67F
$$

             KEY
       WCI = WIND CHILL INDEX
       VSB = VISIBILITY
       HX  = HEAT INDEX
$$



USA.gov is the U.S. government's official web portal to all federal, state and local government web resources and services.